FW7255 Weather Reports


time (UTC)temp
C
wind
direction
speed
KPH
gust
KPH
rain 1hr
cm
rain 24hr
cm
rain mn
cm
humidity
%
barometer
mb
20260510202550 30 318 3.2 11.3 0.00 0.00 0.00 33 1014.2
20260510202051 31 0 0.0 4.8 0.00 0.00 0.00 30 1014.1
20260510201558 30 0 0.0 12.9 0.00 0.00 0.00 31 1014.2
20260510201051 30 219 3.2 12.9 0.00 0.00 0.00 30 1014.3
20260510200551 30 0 1.6 6.4 0.00 0.00 0.00 34 1014.3
20260510195550 30 288 1.6 9.7 0.00 0.00 0.00 31 1014.2
20260510195051 30 271 1.6 6.4 0.00 0.00 0.00 33 1014.3
20260510194600 30 243 1.6 9.7 0.00 0.00 0.00 33 1014.4
20260510194051 29 304 4.8 9.7 0.00 0.00 0.00 33 1014.4
20260510193554 29 324 1.6 11.3 0.00 0.00 0.00 34 1014.3
20260510193055 30 0 4.8 11.3 0.00 0.00 0.00 33 1014.6
20260510192551 30 0 0.0 12.9 0.00 0.00 0.00 33 1014.6
20260510192051 30 0 3.2 12.9 0.00 0.00 0.00 35 1014.7
20260510191550 30 244 0.0 4.8 0.00 0.00 0.00 34 1014.7
20260510191051 30 148 1.6 4.8 0.00 0.00 0.00 34 1014.7
20260510190550 31 140 1.6 4.8 0.00 0.00 0.00 32 1014.8
20260510190100 30 197 0.0 16.1 0.00 0.00 0.00 35 1014.9
20260510185550 30 140 0.0 16.1 0.00 0.00 0.00 34 1014.9
20260510185050 30 269 1.6 11.3 0.00 0.00 0.00 37 1015.0
20260510184557 30 0 1.6 4.8 0.00 0.00 0.00 35 1015.0
20260510184052 29 268 0.0 6.4 0.00 0.00 0.00 36 1015.2
20260510183551 29 280 1.6 6.4 0.00 0.00 0.00 35 1015.3
20260510183052 29 285 3.2 6.4 0.00 0.00 0.00 35 1015.4
20260510182550 29 126 1.6 6.4 0.00 0.00 0.00 35 1015.5
20260510182050 29 125 1.6 4.8 0.00 0.00 0.00 36 1015.5
20260510181601 29 0 0.0 4.8 0.00 0.00 0.00 34 1015.5
20260510181051 28 339 1.6 6.4 0.00 0.00 0.00 34 1015.6
20260510180551 29 83 3.2 6.4 0.00 0.00 0.00 33 1015.5
20260510180058 29 0 1.6 4.8 0.00 0.00 0.00 35 1015.5
20260510175550 29 168 1.6 9.7 0.00 0.00 0.00 35 1015.6
20260510175050 28 290 1.6 12.9 0.00 0.00 0.00 37 1015.7
20260510174558 28 284 3.2 17.7 0.00 0.00 0.00 37 1015.8
20260510174055 28 255 6.4 17.7 0.00 0.00 0.00 35 1015.7
20260510173549 29 254 1.6 6.4 0.00 0.00 0.00 35 1015.6
20260510173056 28 0 0.0 6.4 0.00 0.00 0.00 41 1015.7
20260510172548 27 167 1.6 8.0 0.00 0.00 0.00 40 1015.8
20260510172054 27 336 1.6 9.7 0.00 0.00 0.00 40 1015.9
20260510171559 27 288 1.6 9.7 0.00 0.00 0.00 39 1015.9
20260510171048 28 291 1.6 9.7 0.00 0.00 0.00 41 1015.9
20260510170549 28 246 3.2 9.7 0.00 0.00 0.00 40 1015.8
20260510170121 28 232 3.2 8.0 0.00 0.00 0.00 40 1015.9
20260510165551 28 173 0.0 4.8 0.00 0.00 0.00 38 1015.9
20260510165048 27 27 0.0 6.4 0.00 0.00 0.00 41 1015.9
20260510164604 27 290 0.0 6.4 0.00 0.00 0.00 43 1016.0
20260510164051 27 115 1.6 4.8 0.00 0.00 0.00 42 1016.1
20260510163548 27 47 0.0 6.4 0.00 0.00 0.00 43 1016.1
20260510163053 27 0 1.6 6.4 0.00 0.00 0.00 45 1016.2
20260510162550 27 337 1.6 6.4 0.00 0.00 0.00 46 1016.1
20260510162050 27 247 1.6 4.8 0.00 0.00 0.00 43 1016.1
20260510161554 27 0 1.6 4.8 0.00 0.00 0.00 46 1016.2
20260510161051 27 289 1.6 6.4 0.00 0.00 0.00 46 1016.2
20260510160551 27 25 0.0 6.4 0.00 0.00 0.00 45 1016.1
20260510160054 27 121 1.6 6.4 0.00 0.00 0.00 45 1016.2
20260510155549 26 283 0.0 6.4 0.00 0.00 0.00 48 1016.3
20260510155050 26 257 0.0 3.2 0.00 0.00 0.00 47 1016.5
20260510154553 26 103 0.0 4.8 0.00 0.00 0.00 45 1016.5
20260510154051 26 66 3.2 6.4 0.00 0.00 0.00 47 1016.5
20260510153550 26 5 1.6 6.4 0.00 0.00 0.00 52 1016.5
20260510153058 26 0 0.0 4.8 0.00 0.00 0.00 51 1016.6
20260510152553 26 40 0.0 6.4 0.00 0.00 0.00 53 1016.5
20260510152051 25 0 1.6 6.4 0.00 0.00 0.00 54 1016.4
20260510151556 25 0 3.2 8.0 0.00 0.00 0.00 52 1016.3
20260510151051 25 239 3.2 8.0 0.00 0.00 0.00 53 1016.3
20260510150551 25 244 3.2 6.4 0.00 0.00 0.00 54 1016.4
20260510150058 25 0 0.0 6.4 0.00 0.00 0.00 55 1016.3
20260510145550 25 270 3.2 6.4 0.00 0.00 0.00 55 1016.2
20260510145051 25 0 0.0 6.4 0.00 0.00 0.00 55 1016.3
20260510144552 25 0 0.0 6.4 0.00 0.00 0.00 58 1016.4
20260510144053 25 0 0.0 4.8 0.00 0.00 0.00 57 1016.3
20260510143552 25 132 1.6 4.8 0.00 0.00 0.00 55 1016.3
20260510143055 25 0 0.0 3.2 0.00 0.00 0.00 59 1016.3
20260510142551 25 0 0.0 3.2 0.00 0.00 0.00 61 1016.3
20260510142051 24 0 0.0 4.8 0.00 0.00 0.00 63 1016.2
20260510141553 24 0 0.0 4.8 0.00 0.00 0.00 64 1016.3
20260510141052 23 262 0.0 3.2 0.00 0.00 0.00 63 1016.3
20260510140551 23 44 0.0 3.2 0.00 0.00 0.00 68 1016.2
20260510140056 23 0 0.0 6.4 0.00 0.00 0.00 69 1016.2
20260510135550 22 82 1.6 6.4 0.00 0.00 0.00 71 1016.4
20260510135051 22 0 0.0 6.4 0.00 0.00 0.00 74 1016.4
20260510134556 22 0 1.6 6.4 0.00 0.00 0.00 73 1016.2
20260510134050 22 0 0.0 1.6 0.00 0.00 0.00 76 1016.2
20260510133553 22 0 0.0 3.2 0.00 0.00 0.00 77 1016.2
20260510133055 21 0 0.0 6.4 0.00 0.00 0.00 78 1016.1
20260510132550 21 0 1.6 6.4 0.00 0.00 0.00 79 1016.2
20260510132048 21 0 0.0 1.6 0.00 0.00 0.00 79 1016.2
20260510131559 21 0 0.0 4.8 0.00 0.00 0.00 79 1016.3
20260510131050 21 0 0.0 4.8 0.00 0.00 0.00 83 1015.9
20260510130548 20 240 0.0 0.0 0.00 0.00 0.00 84 1016.0
20260510130058 20 0 0.0 0.0 0.00 0.00 0.00 87 1015.8
20260510125551 20 0 0.0 1.6 0.00 0.00 0.00 91 1015.7
20260510125051 19 0 0.0 3.2 0.00 0.00 0.00 95 1015.7
20260510124605 18 258 0.0 4.8 0.00 0.00 0.00 96 1015.8
20260510124054 18 0 0.0 4.8 0.00 0.00 0.00 99 1015.8
20260510123551 17 0 1.6 4.8 0.00 0.00 0.00 99 1015.8
20260510123058 17 0 0.0 3.2 0.00 0.00 0.00 100 1015.7
20260510122551 17 0 0.0 3.2 0.00 0.00 0.00 100 1015.6
20260510122050 17 0 0.0 0.0 0.00 0.00 0.00 100 1015.6
20260510121559 16 0 0.0 0.0 0.00 0.00 0.00 100 1015.4
20260510121050 16 0 0.0 0.0 0.00 0.00 0.00 100 1015.5
20260510120551 16 0 0.0 0.0 0.00 0.00 0.00 100 1015.6
20260510120054 16 0 0.0 0.0 0.00 0.00 0.00 100 1015.4
20260510115550 16 0 0.0 0.0 0.00 0.00 0.00 100 1015.4
20260510115050 15 0 0.0 0.0 0.00 0.00 0.00 100 1015.5
20260510114552 15 0 0.0 0.0 0.00 0.00 0.00 100 1015.5
20260510114053 15 0 0.0 0.0 0.00 0.00 0.00 100 1015.3
20260510113548 15 0 0.0 0.0 0.00 0.00 0.00 100 1015.2
20260510113053 15 0 0.0 0.0 0.00 0.00 0.00 100 1015.1
20260510112549 15 0 0.0 0.0 0.00 0.00 0.00 100 1015.0
20260510112051 15 0 0.0 0.0 0.00 0.00 0.00 100 1015.0
20260510111555 15 0 0.0 0.0 0.00 0.00 0.00 99 1015.0
20260510111048 14 0 0.0 0.0 0.00 0.00 0.00 99 1014.9
20260510110550 14 0 0.0 0.0 0.00 0.00 0.00 99 1014.9
20260510110053 14 0 0.0 0.0 0.00 0.00 0.00 99 1014.8
20260510105551 14 0 0.0 0.0 0.00 0.00 0.00 99 1014.6
20260510105051 14 0 0.0 0.0 0.00 0.00 0.00 99 1014.6
20260510104557 14 0 0.0 0.0 0.00 0.00 0.00 99 1014.7
20260510104050 14 0 0.0 0.0 0.00 0.00 0.00 99 1014.6
20260510103551 14 0 0.0 0.0 0.00 0.00 0.00 99 1014.6
20260510103056 14 0 0.0 0.0 0.00 0.00 0.00 99 1014.5
20260510102551 14 0 0.0 0.0 0.00 0.00 0.00 99 1014.3
20260510102051 14 0 0.0 0.0 0.00 0.00 0.00 99 1014.2
20260510101551 14 0 0.0 0.0 0.00 0.00 0.00 99 1014.1
20260510101048 14 0 0.0 0.0 0.00 0.00 0.00 99 1014.0
20260510100548 14 0 0.0 0.0 0.00 0.00 0.00 99 1013.9
20260510100101 14 0 0.0 0.0 0.00 0.00 0.00 99 1014.0
20260510095547 14 0 0.0 0.0 0.00 0.00 0.00 99 1013.7
20260510095048 14 0 0.0 0.0 0.00 0.00 0.00 99 1013.5
20260510094553 14 0 0.0 0.0 0.00 0.00 0.00 99 1013.5
20260510094050 14 0 0.0 0.0 0.00 0.00 0.00 99 1013.4
20260510093550 14 0 0.0 0.0 0.00 0.00 0.00 99 1013.4
20260510093101 14 0 0.0 0.0 0.00 0.00 0.00 99 1013.3
20260510092550 14 0 0.0 0.0 0.00 0.00 0.00 99 1013.4
20260510092050 15 0 0.0 0.0 0.00 0.00 0.00 99 1013.3
20260510091556 15 0 0.0 0.0 0.00 0.00 0.00 99 1013.3
20260510091051 15 0 0.0 0.0 0.00 0.00 0.00 99 1013.2
20260510090551 15 0 0.0 0.0 0.00 0.00 0.00 99 1013.3
20260510090057 15 0 0.0 0.0 0.00 0.00 0.00 99 1013.2
20260510085550 14 0 0.0 0.0 0.00 0.00 0.00 99 1013.2
20260510085051 14 0 0.0 0.0 0.00 0.00 0.00 99 1013.2
20260510084553 14 0 0.0 0.0 0.00 0.00 0.00 99 1013.2
20260510084048 15 0 0.0 0.0 0.00 0.00 0.00 99 1013.1
20260510083551 15 0 0.0 0.0 0.00 0.00 0.00 99 1013.1
20260510083309 15 0 0.0 0.0 0.00 0.00 0.00 99 1013.0
20260510082547 15 0 0.0 0.0 0.00 0.00 0.00 99 1013.0
20260510082048 15 0 0.0 0.0 0.00 0.00 0.00 99 1012.9
20260510081553 15 0 0.0 0.0 0.00 0.00 0.00 99 1013.0
20260510081048 15 0 0.0 0.0 0.00 0.00 0.00 99 1012.9
20260510080551 15 0 0.0 0.0 0.00 0.00 0.00 99 1012.8
20260510080058 15 0 0.0 0.0 0.00 0.00 0.00 99 1012.8
20260510075550 15 0 0.0 0.0 0.00 0.00 0.00 99 1012.7
20260510075050 15 0 0.0 0.0 0.00 0.00 0.00 99 1012.8
20260510074556 15 0 0.0 0.0 0.00 0.00 0.00 99 1012.9
20260510074050 15 0 0.0 0.0 0.00 0.00 0.00 99 1012.9
20260510073550 15 0 0.0 0.0 0.00 0.00 0.00 99 1012.8
20260510073105 15 0 0.0 0.0 0.00 0.00 0.00 99 1012.5
20260510072548 15 0 0.0 0.0 0.00 0.00 0.00 98 1012.5
20260510072048 15 0 0.0 0.0 0.00 0.00 0.00 98 1012.5
20260510071552 15 0 0.0 0.0 0.00 0.00 0.00 98 1012.5
20260510071048 15 0 0.0 0.0 0.00 0.00 0.00 98 1012.5
20260510070549 15 0 0.0 0.0 0.00 0.00 0.00 98 1012.7
20260510070051 15 0 0.0 0.0 0.00 0.00 0.00 98 1012.8
20260510065549 15 0 0.0 0.0 0.00 0.00 0.00 98 1012.8
20260510065049 15 0 0.0 0.0 0.00 0.00 0.00 98 1012.9
20260510064558 15 0 0.0 0.0 0.00 0.00 0.00 98 1012.8
20260510064048 15 0 0.0 0.0 0.00 0.00 0.00 98 1012.8
20260510063548 15 0 0.0 0.0 0.00 0.00 0.00 98 1012.8
20260510063054 15 0 0.0 0.0 0.00 0.00 0.00 98 1012.7
20260510062551 15 0 0.0 0.0 0.00 0.00 0.00 98 1012.5
20260510062050 15 0 0.0 0.0 0.00 0.00 0.00 98 1012.6
20260510061555 15 0 0.0 0.0 0.00 0.00 0.00 98 1012.3
20260510061051 15 0 0.0 0.0 0.00 0.00 0.00 98 1012.7
20260510060550 15 0 0.0 0.0 0.00 0.00 0.00 98 1012.6
20260510060055 15 0 0.0 0.0 0.00 0.00 0.00 98 1012.7
20260510055550 15 0 0.0 0.0 0.00 0.00 0.00 98 1012.6
20260510055048 15 0 0.0 0.0 0.00 0.00 0.00 98 1012.7
20260510054554 15 0 0.0 0.0 0.00 0.00 0.00 98 1012.8
20260510054049 15 0 0.0 0.0 0.00 0.00 0.00 98 1012.7
20260510053548 15 0 0.0 0.0 0.00 0.00 0.00 98 1012.8
20260510053059 15 0 0.0 0.0 0.00 0.00 0.00 98 1013.0
20260510052548 16 0 0.0 0.0 0.00 0.00 0.00 98 1013.2
20260510052048 16 0 0.0 0.0 0.00 0.00 0.00 98 1013.1
20260510051602 16 0 0.0 0.0 0.00 0.00 0.00 97 1013.2
20260510051047 16 0 0.0 0.0 0.00 0.00 0.00 97 1013.2
20260510050551 16 0 0.0 0.0 0.00 0.00 0.00 97 1013.1
20260510050057 16 0 0.0 0.0 0.00 0.00 0.00 97 1013.0
20260510045547 16 0 0.0 0.0 0.00 0.00 0.00 98 1013.1
20260510045047 16 0 0.0 0.0 0.00 0.00 0.00 98 1013.2
20260510044557 16 0 0.0 0.0 0.00 0.00 0.00 98 1013.4
20260510044050 16 0 0.0 0.0 0.00 0.00 0.00 98 1013.2
20260510043552 16 0 0.0 0.0 0.00 0.00 0.00 98 1013.2
20260510043059 16 0 0.0 0.0 0.00 0.00 0.00 97 1013.2
20260510042550 16 0 0.0 0.0 0.00 0.00 0.00 97 1013.2
20260510042048 16 0 0.0 0.0 0.00 0.00 0.00 97 1013.3
20260510041556 16 0 0.0 0.0 0.00 0.00 0.00 97 1013.2
20260510041048 16 0 0.0 0.0 0.00 0.00 0.00 97 1013.3
20260510040551 16 0 0.0 0.0 0.00 0.00 0.00 97 1013.2
20260510040058 16 0 0.0 0.0 0.00 0.00 0.00 97 1013.1
20260510035548 16 0 0.0 0.0 0.00 0.00 0.00 97 1013.2
20260510035050 16 0 0.0 0.0 0.00 0.00 0.00 96 1013.1
20260510034554 16 0 0.0 0.0 0.00 0.00 0.00 96 1013.1
20260510034048 16 0 0.0 0.0 0.00 0.00 0.00 96 1013.1
20260510033549 16 0 0.0 0.0 0.00 0.00 0.00 96 1013.0
20260510033112 16 0 0.0 0.0 0.00 0.00 0.00 96 1013.0
20260510032547 16 0 0.0 0.0 0.00 0.00 0.00 96 1012.9
20260510032047 16 0 0.0 0.0 0.00 0.00 0.00 96 1012.8
20260510031554 17 0 0.0 0.0 0.00 0.00 0.00 96 1012.8
20260510031048 17 0 0.0 0.0 0.00 0.00 0.00 96 1012.8
20260510030550 17 0 0.0 0.0 0.00 0.00 0.00 96 1012.8
20260510030057 17 0 0.0 0.0 0.00 0.00 0.00 95 1012.7
20260510025550 17 0 0.0 0.0 0.00 0.00 0.00 95 1012.7
20260510025048 17 0 0.0 0.0 0.00 0.00 0.00 95 1012.8
20260510024601 17 0 0.0 0.0 0.00 0.00 0.00 95 1012.6
20260510024050 17 0 0.0 0.0 0.00 0.00 0.00 95 1012.7
20260510023550 17 0 0.0 0.0 0.00 0.00 0.00 95 1012.8
20260510023056 17 0 0.0 0.0 0.00 0.00 0.00 94 1012.8
20260510022549 17 0 0.0 0.0 0.00 0.00 0.00 94 1012.7
20260510022048 17 0 0.0 0.0 0.00 0.00 0.00 94 1012.6
20260510021552 17 0 0.0 0.0 0.00 0.00 0.00 94 1012.7
20260510021047 17 0 0.0 0.0 0.00 0.00 0.00 94 1012.4
20260510020548 17 0 0.0 0.0 0.00 0.00 0.00 94 1012.5
20260510020057 17 0 0.0 0.0 0.00 0.00 0.00 94 1012.4
20260510015549 17 0 0.0 1.6 0.00 0.00 0.00 94 1012.7
20260510015047 17 0 0.0 1.6 0.00 0.00 0.00 95 1012.5
20260510014556 17 0 0.0 0.0 0.00 0.00 0.00 94 1012.5
20260510014048 17 0 0.0 0.0 0.00 0.00 0.00 94 1012.3
20260510013548 17 0 0.0 0.0 0.00 0.00 0.00 93 1012.3
20260510013053 17 0 0.0 0.0 0.00 0.00 0.00 93 1012.3
20260510012552 17 0 0.0 0.0 0.00 0.00 0.00 92 1012.1
20260510012049 17 0 0.0 0.0 0.00 0.00 0.00 91 1012.1
20260510011550 17 0 0.0 0.0 0.00 0.00 0.00 91 1012.0
20260510011047 17 0 0.0 0.0 0.00 0.00 0.00 90 1011.9
20260510010550 18 0 0.0 0.0 0.00 0.00 0.00 90 1011.9
20260510010049 18 0 0.0 0.0 0.00 0.00 0.00 89 1012.0
20260510005550 18 0 0.0 0.0 0.00 0.00 0.00 89 1011.8
20260510005047 18 0 0.0 0.0 0.00 0.00 0.00 88 1011.7
20260510004554 18 0 0.0 0.0 0.00 0.00 0.00 86 1011.6
20260510004048 18 0 0.0 0.0 0.00 0.00 0.00 86 1011.7
20260510003548 19 0 0.0 0.0 0.00 0.00 0.00 85 1011.7
20260510003103 19 0 0.0 0.0 0.00 0.00 0.00 85 1011.6
20260510002549 20 0 0.0 0.0 0.00 0.00 0.00 84 1011.6
20260510002047 20 0 0.0 0.0 0.00 0.00 0.00 84 1011.8
20260510001552 20 0 0.0 0.0 0.00 0.00 0.00 83 1011.9
20260510001047 20 0 0.0 0.0 0.00 0.00 0.00 82 1011.8
20260510000549 20 0 0.0 0.0 0.00 0.00 0.00 81 1011.6
20260510000057 21 0 0.0 0.0 0.00 0.00 0.00 80 1011.7
20260509235548 21 0 0.0 0.0 0.00 0.00 0.00 80 1011.6
20260509235048 21 0 0.0 1.6 0.00 0.00 0.00 79 1011.5
20260509234612 21 0 0.0 1.6 0.00 0.00 0.00 79 1011.4
20260509234051 21 0 0.0 1.6 0.00 0.00 0.00 78 1011.3
20260509233556 21 0 0.0 0.0 0.00 0.00 0.00 77 1011.0
20260509233053 21 0 0.0 0.0 0.00 0.00 0.00 77 1011.1
20260509232552 22 0 0.0 1.6 0.00 0.00 0.00 76 1011.1
20260509232052 22 0 0.0 1.6 0.00 0.00 0.00 76 1011.2
20260509231559 22 0 0.0 9.7 0.00 0.00 0.00 75 1011.0
20260509231051 22 263 1.6 14.5 0.00 0.00 0.00 75 1011.0
20260509230551 22 267 6.4 14.5 0.00 0.00 0.00 74 1010.9
20260509225554 22 235 1.6 12.9 0.00 0.00 0.00 73 1010.8
20260509225050 22 250 3.2 12.9 0.00 0.00 0.00 73 1010.7
20260509224559 22 248 1.6 6.4 0.00 0.00 0.00 72 1010.6
20260509224052 22 302 0.0 6.4 0.00 0.00 0.00 72 1010.6
20260509223551 22 233 3.2 9.7 0.00 0.00 0.00 73 1010.9
20260509223059 22 288 3.2 11.3 0.00 0.00 0.00 72 1010.8
20260509222548 23 0 3.2 11.3 0.00 0.00 0.00 71 1010.8
20260509222050 23 137 1.6 4.8 0.00 0.00 0.00 72 1010.8
20260509221550 22 0 1.6 8.0 0.00 0.00 0.00 73 1011.0
20260509221052 22 344 0.0 8.0 0.00 0.00 0.00 73 1011.1
20260509220552 22 0 0.0 9.7 0.00 0.00 0.00 74 1011.0
20260509220057 22 0 1.6 9.7 0.00 0.00 0.00 74 1010.8
20260509215552 22 0 0.0 6.4 0.00 0.00 0.00 75 1010.9
20260509215052 22 251 1.6 8.0 0.00 0.00 0.00 74 1011.0
20260509214555 22 241 3.2 8.0 0.00 0.00 0.00 74 1010.8
20260509214056 22 258 0.0 6.4 0.00 0.00 0.00 74 1010.8
20260509213552 22 0 0.0 4.8 0.00 0.00 0.00 74 1010.8
20260509213057 22 0 1.6 12.9 0.00 0.00 0.00 74 1010.8
20260509212551 22 286 4.8 12.9 0.00 0.00 0.00 73 1010.8
20260509212052 22 222 3.2 9.7 0.00 0.00 0.00 72 1010.6
20260509211553 23 244 0.0 6.4 0.00 0.00 0.00 71 1010.6
20260509211051 22 0 0.0 9.7 0.00 0.00 0.00 71 1010.6
20260509210552 22 0 1.6 9.7 0.00 0.00 0.00 72 1010.7
20260509210059 22 252 1.6 9.7 0.00 0.00 0.00 71 1010.7
20260509205551 22 0 0.0 11.3 0.00 0.00 0.00 73 1010.7
20260509205048 22 277 3.2 11.3 0.00 0.00 0.00 73 1010.6
20260509204556 22 0 3.2 9.7 0.00 0.00 0.00 73 1010.9
20260509204048 22 258 0.0 4.8 0.00 0.00 0.00 72 1010.9
20260509203547 22 251 1.6 4.8 0.00 0.00 0.00 72 1010.7
20260509203058 22 0 0.0 3.2 0.00 0.00 0.00 72 1010.7